Regional Weather Roundup
Issued by NWS

Home | Current Version | Previous Version | Graphics & Text | Print | Product List | Glossary On
Versions: 1 2 3 4 5 6 7 8 9 10 11 12 13 14 15 16 17 18 19 20 21 22 23 24 25 26 27 28 29 30 31 32 33 34 35 36 37 38 39 40 41 42 43 44 45 46 47 48 49 50
000
ASUS43 KDMX 020806
RWRIA

WEATHER ROUNDUP FOR IOWA
NATIONAL WEATHER SERVICE DES MOINES IA
200 AM CST FRI DEC 02 2016

NOTE: "FAIR" INDICATES FEW OR NO CLOUDS BELOW 12,000 FEET WITH NO
SIGNIFICANT WEATHER AND/OR OBSTRUCTIONS TO VISIBILITY.

* - THESE STATIONS ARE NOT NWS STATIONS...THUS NOT UNDER NWS
QUALITY CONTROL.  THEY ALSO DO NOT REPORT WEATHER SUCH
AS PRECIPITATION OR FOG.

IAZ001>003-012>014-020>022-031>034-043>046-020900-
   NORTHWEST IOWA

CITY           SKY/WX    TMP DP  RH WIND       PRES   REMARKS
CARROLL *      CLOUDY    34  32  93 NW7       30.11R WCI  28
CHEROKEE *     CLOUDY    33  32  97 W3        30.11R
DENISON *      CLOUDY    32  30  93 W5        30.10R WCI  27
LE MARS *      CLOUDY    34  32  93 NW6       30.13R WCI  29
ORANGE CITY *  CLOUDY    32  32 100 CALM      30.10R
SHELDON *      CLOUDY    32  32 100 NW5       30.09R FOG     WCI  27
SIOUX CITY     CLOUDY    35  31  85 W5        30.13R WCI  31
SPENCER        CLOUDY    33  31  92 NW8       30.10R WCI  26
STORM LAKE *   CLOUDY    32  30  93 W7        30.09R WCI  26
$$

IAZ055>058-069>071-079>083-090>094-020900-
   SOUTHWEST IOWA

CITY           SKY/WX    TMP DP  RH WIND       PRES   REMARKS
ATLANTIC *     CLOUDY    32  30  93 CALM      30.13R
AUDUBON *      CLOUDY    32  28  86 CALM      30.12R
CLARINDA *       N/A     28  28 100 CALM      30.16R
COUNCIL BLFS * CLOUDY    32  30  93 W5        30.14R WCI  27
CRESTON *      CLOUDY    32  30  93 W5        30.13R WCI  27
HARLAN  *      CLOUDY    32  32 100 W6        30.16R WCI  26
LAMONI         CLOUDY    30  26  85 W5        30.12R WCI  25
RED OAK *      CLOUDY    30  28  93 CALM      30.15R
SHENANDOAH *   CLOUDY    28  28 100 CALM      30.16R
$$

IAZ047>049-059>061-072>074-084-020900-
   CENTRAL IOWA

CITY           SKY/WX    TMP DP  RH WIND       PRES   REMARKS
AMES           CLOUDY    35  33  92 W8        30.10R WCI  29
ANKENY *       CLOUDY    36  34  93 W7        30.12R WCI  30
BOONE *        CLOUDY    34  32  93 W8        30.09R WCI  27
CHARITON *       N/A     36  30  80 W7        30.12R WCI  30
DES MOINES     CLOUDY    36  30  79 W7        30.12R WCI  30
GRINNELL*      CLOUDY    35  32  90 W7        30.09R WCI  29
KNOXVILLE *    CLOUDY    36  30  80 W6        30.11R WCI  31
MARSHALLTOWN   CLOUDY    34  33  96 W9        30.08R WCI  27
NEWTON *       CLOUDY    34  32  93 NW8       30.09R WCI  27
PELLA *        CLOUDY    36  31  83 W7        30.12R WCI  30
PERRY *        CLOUDY    34  33  95 W7        30.11R WCI  28
$$

IAZ004>006-015-016-023>025-035-036-020900-
   NORTH CENTRAL IOWA

CITY           SKY/WX    TMP DP  RH WIND       PRES   REMARKS
ALGONA *       CLOUDY    34  32  93 NW8       30.09R WCI  27
CLARION *      CLOUDY    34  34 100 W6        30.09R WCI  29
ESTHERVILLE    CLOUDY    31  30  96 NW9       30.09R WCI  23
FORT DODGE *   CLOUDY    34  28  80 W3        30.11R
MASON CITY     CLOUDY    33  30  88 NW10      30.08R WCI  25
FOREST CITY *  CLOUDY    32  32 100 NW8       30.08R WCI  25
WEBSTER CITY * CLOUDY    34  34 100 NW9       30.08R WCI  26
$$

IAZ007>011-017>019-026>030-037>042-050>054-066-020900-
   NORTHEAST IOWA

CITY           SKY/WX    TMP DP  RH WIND       PRES   REMARKS
CEDAR RAPIDS   CLOUDY    34  34 100 W6        30.07R WCI  29
CHARLES CITY * CLOUDY    34  34 100 NW9       30.06R WCI  26
CLINTON *      CLOUDY    36  34  92 W12       30.07R WCI  28
DECORAH *      CLOUDY    34  34 100 VRB5      30.02R WCI  30
DUBUQUE        CLOUDY    35  33  92 W9        30.05R WCI  28
MONTICELLO *   CLOUDY    36  34  93 W7        30.06R WCI  30
OELWEIN *      CLOUDY    34  34 100 W10       30.06R WCI  26
WATERLOO       CLOUDY    34  32  92 W7        30.07R WCI  28
$$

IAZ064-065-067-068-078-020900-
   EAST CENTRAL IOWA

CITY           SKY/WX    TMP DP  RH WIND       PRES   REMARKS
DAVENPORT      CLOUDY    36  33  89 W9        30.08R WCI  29
IOWA CITY      CLOUDY    37  32  82 W7        30.10R WCI  32
MUSCATINE *    CLOUDY    37  32  81 W7        30.10R WCI  32
QUAD CITIES    CLOUDY    38  32  79 W9        30.08R WCI  31
$$

IAZ062-063-075>077-085>089-095>099-020900-
   SOUTHEAST IOWA

CITY           SKY/WX    TMP DP  RH WIND       PRES   REMARKS
BURLINGTON     MOCLDY    34  30  85 W6        30.10R WCI  29
FAIRFIELD *    CLOUDY    36  30  80 SW6       30.11R WCI  31
FORT MADISON * CLOUDY    36  30  80 W5        30.12R WCI  32
KEOKUK *       CLOUDY    36  30  80 SW7       30.12R WCI  30
OSKALOOSA *    CLOUDY    34  31  87 W7        30.11R WCI  28
CENTERVILLE *  CLOUDY    36  30  80 W7        30.13R WCI  30
OTTUMWA        CLOUDY    36  29  75 W9        30.11R WCI  29
WASHINGTON *   CLOUDY    36  32  87 W7        30.11R WCI  30
$$

ABBREVIATIONS USED IN REMARKS
   TC - TEMPERATURES IN CELSIUS
  WCI - WIND CHILL INDEX
   HX - HEAT INDEX
  VSB - VISIBILITY
$$





USA.gov is the U.S. government's official web portal to all federal, state and local government web resources and services.